Location: George Washington National Forest Helicopter Landing Site
(38.6463°N, 79.0851°W)
Time: 03:15:03
(UTC-04:00)

Vanguard 1 - All Passes

Search period start: 24 August 2019 00:00
Search period end: 03 September 2019 00:00
Orbit: 654 x 3829 km, 34.2° (Epoch: 23 August)

Date Brightness Start Highest point End Pass type
(mag) Time Alt. Az. Time Alt. Az. Time Alt. Az.
24 Aug - 10:05:59 10° SSW 10:11:42 24° SSE 10:15:50 10° ESE daylight
24 Aug - 12:26:36 10° WSW 12:31:39 47° S 12:35:53 10° E daylight
24 Aug - 14:47:04 10° W 14:51:14 41° S 14:56:11 10° ESE daylight
24 Aug - 17:07:38 10° WSW 17:11:14 18° SSW 17:15:52 10° SSE daylight
25 Aug - 08:08:26 10° S 08:11:50 12° SSE 08:14:42 10° SE daylight
25 Aug - 10:26:25 10° SW 10:32:43 31° SSE 10:37:06 10° ESE daylight
25 Aug - 12:47:37 10° WSW 12:52:34 51° S 12:56:52 10° ESE daylight
25 Aug - 15:08:08 10° W 15:12:09 33° SSW 15:16:59 10° SE daylight
25 Aug - 17:30:01 10° SW 17:32:17 12° SSW 17:34:55 10° S daylight
26 Aug - 08:26:55 10° SSW 08:33:02 18° SSE 08:37:30 10° ESE daylight
26 Aug - 10:47:09 10° SW 10:53:42 39° SSE 10:58:12 10° E daylight
26 Aug - 13:08:41 10° W 13:13:29 50° S 13:17:49 10° ESE daylight
26 Aug - 15:29:20 10° WSW 15:33:03 26° SSW 15:37:34 10° SE daylight
27 Aug - 08:46:37 10° SSW 08:54:10 24° SSE 08:59:15 10° ESE daylight
27 Aug - 11:08:07 10° WSW 11:14:40 46° S 11:19:11 10° E daylight
27 Aug - 13:29:46 10° W 13:34:23 46° S 13:38:42 10° ESE daylight
27 Aug - 15:50:46 10° WSW 15:53:58 19° SSW 15:57:45 10° SSE daylight
28 Aug - 06:48:58 10° S 06:53:38 13° SSE 06:57:28 10° SE daylight
28 Aug - 09:06:55 10° SW 09:15:17 32° SSE 09:20:36 10° E daylight
28 Aug - 11:29:13 10° WSW 11:35:38 52° S 11:40:07 10° E daylight
28 Aug - 13:50:53 10° W 13:55:16 38° SSW 13:59:31 10° SE daylight
28 Aug - 16:12:52 10° SW 16:14:54 12° SSW 16:17:09 10° S daylight
29 Aug - 07:07:00 10° SSW 07:14:56 19° SSE 07:20:35 10° ESE daylight
29 Aug - 09:27:35 10° SW 09:36:22 39° SSE 09:41:44 10° E daylight
29 Aug - 11:50:23 10° WSW 11:56:35 55° S 12:01:01 10° ESE daylight
29 Aug - 14:12:05 10° W 14:16:07 30° SSW 14:20:09 10° SE daylight
30 Aug - 07:26:23 10° SSW 07:36:10 25° SSE 07:42:33 10° ESE daylight
30 Aug - 09:48:33 10° WSW 09:57:24 47° S 10:02:44 10° E daylight
30 Aug - 12:11:35 10° W 12:17:31 53° S 12:21:53 10° ESE daylight
30 Aug - 14:33:26 10° WSW 14:36:57 22° SSW 14:40:31 10° SSE daylight
31 Aug - 05:29:22 10° S 05:34:52 13° SSE 05:39:28 10° SE visible
31 Aug - 07:46:27 10° SW 07:57:22 32° SSE 08:04:01 10° E daylight
31 Aug - 10:09:41 10° WSW 10:18:26 54° S 10:23:40 10° E daylight
31 Aug - 12:32:48 10° W 12:38:25 47° SSW 12:42:42 10° ESE daylight
31 Aug - 14:55:10 10° WSW 14:57:45 15° SSW 15:00:24 10° S daylight
01 Sep - 05:46:38 10° S 05:56:14 19° SSE 06:03:12 10° ESE visible
01 Sep - 08:07:00 10° SW 08:18:33 40° SSE 08:25:14 10° E daylight
01 Sep - 10:30:57 10° WSW 10:39:26 59° S 10:44:34 10° E daylight
01 Sep - 12:54:04 10° W 12:59:16 39° SSW 13:03:25 10° SE daylight
02 Sep - 06:05:34 10° SSW 06:17:33 25° SSE 06:25:28 10° ESE visible
02 Sep - 08:27:52 10° SW 08:39:41 48° SSE 08:46:17 10° E daylight
02 Sep - 10:52:17 10° W 11:00:26 60° S 11:05:26 10° ESE daylight
02 Sep - 13:15:23 10° W 13:20:03 30° SSW 13:23:57 10° SE daylight
